FW4250 Weather Reports


Display with metric or nautical units.
time (UTC)temp
F
wind
direction
speed
MPH
gust
MPH
rain 1hr
in
rain 24hr
in
rain mn
in
humidity
%
barometer
mb
20260902233024 77 209 6.0 10.0 0.00 0.00 0.00 48 987.9
20260902232526 78 163 7.0 15.0 0.00 0.00 0.00 49 988.0
20260902232022 78 196 6.0 11.0 0.00 0.00 0.00 50 987.9
20260902231522 78 185 6.0 17.0 0.00 0.00 0.00 51 987.9
20260902231022 78 205 8.0 17.0 0.00 0.00 0.00 50 988.0
20260902230520 79 184 6.0 10.0 0.00 0.00 0.00 50 988.0
20260902230022 79 202 6.0 12.0 0.00 0.00 0.00 47 988.1
20260902225520 79 181 6.0 14.0 0.00 0.00 0.00 45 988.1
20260902225022 79 205 7.0 13.0 0.00 0.00 0.00 46 988.1
20260902224520 79 205 8.0 13.0 0.00 0.00 0.00 48 988.2
20260902224018 80 213 6.0 11.0 0.00 0.00 0.00 45 988.1
20260902223519 81 209 6.0 10.0 0.00 0.00 0.00 40 988.2
20260902223018 81 180 6.0 13.0 0.00 0.00 0.00 40 988.4
20260902222518 81 176 6.0 13.0 0.00 0.00 0.00 40 988.3
20260902222018 81 173 7.0 14.0 0.00 0.00 0.00 41 988.3
20260902221518 81 175 6.0 14.0 0.00 0.00 0.00 42 988.3
20260902221020 81 175 6.0 14.0 0.00 0.00 0.00 46 988.3
20260902220515 81 207 6.0 11.0 0.00 0.00 0.00 46 988.5
20260902220014 81 192 5.0 10.0 0.00 0.00 0.00 49 988.5
20260902215514 81 184 6.0 11.0 0.00 0.00 0.00 44 988.6
20260902215013 80 194 5.0 10.0 0.00 0.00 0.00 46 988.6
20260902214522 80 194 6.0 10.0 0.00 0.00 0.00 48 988.7
20260902214012 80 148 7.0 10.0 0.00 0.00 0.00 47 988.7
20260902213514 80 201 5.0 10.0 0.00 0.00 0.00 50 988.8
20260902213011 80 188 6.0 9.0 0.00 0.00 0.00 51 988.8
20260902212511 79 171 5.0 10.0 0.00 0.00 0.00 52 988.9
20260902212014 80 185 7.0 10.0 0.00 0.00 0.00 50 988.9
20260902211511 80 148 4.0 12.0 0.00 0.00 0.00 51 988.9
20260902211010 80 161 6.0 12.0 0.00 0.00 0.00 51 989.0
20260902210511 80 158 7.0 11.0 0.00 0.00 0.00 52 988.9
20260902210010 80 196 5.0 11.0 0.00 0.00 0.00 51 989.1
20260902205509 80 204 7.0 11.0 0.00 0.00 0.00 51 989.0
20260902205010 80 237 6.0 11.0 0.00 0.00 0.00 50 989.0
20260902204509 81 184 4.0 9.0 0.00 0.00 0.00 50 989.0
20260902204009 80 165 5.0 9.0 0.00 0.00 0.00 49 989.0
20260902203507 80 214 5.0 11.0 0.00 0.00 0.00 50 989.0
20260902203008 80 166 4.0 11.0 0.00 0.00 0.00 51 989.0
20260902202507 80 149 4.0 12.0 0.00 0.00 0.00 51 989.0
20260902202007 80 180 6.0 12.0 0.00 0.00 0.00 49 989.0
20260902201508 80 147 4.0 11.0 0.00 0.00 0.00 50 989.1
20260902201006 80 217 5.0 11.0 0.00 0.00 0.00 50 989.1
20260902200507 80 146 6.0 11.0 0.00 0.00 0.00 49 989.1
20260902200007 80 190 5.0 10.0 0.00 0.00 0.00 49 989.3
20260902195507 80 164 5.0 10.0 0.00 0.00 0.00 51 989.3
20260902195008 79 169 6.0 9.0 0.00 0.00 0.00 51 989.4
20260902194505 79 186 6.0 9.0 0.00 0.00 0.00 51 989.3
20260902194005 79 222 4.0 9.0 0.00 0.00 0.00 52 989.5
20260902193505 79 163 7.0 9.0 0.00 0.00 0.00 51 989.4
20260902193004 79 215 5.0 8.0 0.00 0.00 0.00 50 989.5
20260902192506 79 163 5.0 8.0 0.00 0.00 0.00 48 989.5
20260902192004 80 190 6.0 8.0 0.00 0.00 0.00 48 989.5
20260902191503 80 135 5.0 9.0 0.00 0.00 0.00 47 989.7
20260902191001 79 159 5.0 10.0 0.00 0.00 0.00 48 989.8
20260902190600 79 183 6.0 11.0 0.00 0.00 0.00 47 989.7
20260902190100 78 123 3.0 11.0 0.00 0.00 0.00 47 989.7
20260902185559 78 115 5.0 9.0 0.00 0.00 0.00 46 989.8
20260902185058 78 192 4.0 7.0 0.00 0.00 0.00 47 989.8
20260902184657 79 195 3.0 7.0 0.00 0.00 0.00 45 989.8
20260902184056 78 184 2.0 9.0 0.00 0.00 0.00 43 989.8
20260902183557 79 221 3.0 9.0 0.00 0.00 0.00 43 989.9
20260902183055 78 160 4.0 11.0 0.00 0.00 0.00 44 989.9
20260902182553 78 193 4.0 11.0 0.00 0.00 0.00 44 990.0
20260902182052 78 156 5.0 9.0 0.00 0.00 0.00 42 989.9
20260902181551 78 202 4.0 7.0 0.00 0.00 0.00 43 989.9
20260902181049 77 171 5.0 7.0 0.00 0.00 0.00 46 989.9
20260902180548 77 171 4.0 6.0 0.00 0.00 0.00 45 990.0
20260902180047 76 185 0.0 6.0 0.00 0.00 0.00 45 989.9
20260902175546 76 184 3.0 6.0 0.00 0.00 0.00 43 990.0
20260902175045 76 171 2.0 7.0 0.00 0.00 0.00 47 989.9
20260902174550 76 151 2.0 6.0 0.00 0.00 0.00 45 989.9
20260902174044 75 150 3.0 7.0 0.00 0.00 0.00 44 989.9
20260902173541 75 149 4.0 7.0 0.00 0.00 0.00 47 989.9
20260902173039 74 189 1.0 5.0 0.00 0.00 0.00 50 990.0
20260902172538 73 188 2.0 6.0 0.00 0.00 0.00 51 990.0
20260902172039 73 193 1.0 6.0 0.00 0.00 0.00 55 989.9
20260902171540 73 185 2.0 7.0 0.00 0.00 0.00 52 989.9
20260902171034 73 190 2.0 7.0 0.00 0.00 0.00 51 989.8
20260902170532 72 159 3.0 8.0 0.00 0.00 0.00 51 989.9
20260902170035 72 171 4.0 5.0 0.00 0.00 0.00 52 990.0
20260902165530 71 172 1.0 4.0 0.00 0.00 0.00 52 989.8
20260902165028 71 172 2.0 5.0 0.00 0.00 0.00 52 989.9
20260902164538 70 176 0.0 5.0 0.00 0.00 0.00 55 989.8
20260902164026 70 176 2.0 5.0 0.00 0.00 0.00 55 989.9
20260902163524 69 177 2.0 4.0 0.00 0.00 0.00 57 989.9
20260902163021 69 178 0.0 4.0 0.00 0.00 0.00 58 989.8
20260902162526 68 178 2.0 4.0 0.00 0.00 0.00 58 989.8
20260902162023 68 156 1.0 6.0 0.00 0.00 0.00 58 989.9
20260902161524 67 156 1.0 6.0 0.00 0.00 0.00 59 989.8
20260902161017 67 156 3.0 5.0 0.00 0.00 0.00 60 989.8
20260902160518 66 156 1.0 3.0 0.00 0.00 0.00 62 989.8
20260902160014 65 156 1.0 3.0 0.00 0.00 0.00 63 989.8
20260902155514 65 156 0.0 3.0 0.00 0.00 0.00 65 989.9
20260902155011 65 156 1.0 3.0 0.00 0.00 0.00 66 989.8
20260902154515 64 156 1.0 3.0 0.00 0.00 0.00 70 989.8
20260902154007 63 156 0.0 3.0 0.00 0.00 0.00 74 989.8
20260902153506 62 156 0.0 2.0 0.00 0.00 0.00 77 989.7
20260902153005 61 156 0.0 2.0 0.00 0.00 0.00 77 989.8
20260902152505 60 156 1.0 3.0 0.00 0.00 0.00 79 990.0
20260902152002 59 156 1.0 3.0 0.00 0.00 0.00 81 989.9
20260902151502 59 156 0.0 0.0 0.00 0.00 0.00 84 989.9
20260902151002 58 156 0.0 0.0 0.00 0.00 0.00 85 989.9
20260902150600 57 156 0.0 0.0 0.00 0.00 0.00 85 989.9
20260902150100 56 156 0.0 0.0 0.00 0.00 0.00 86 990.0
20260902145559 56 156 0.0 0.0 0.00 0.00 0.00 87 989.9
20260902145059 55 156 0.0 0.0 0.00 0.00 0.00 88 990.1
20260902144601 54 156 0.0 0.0 0.00 0.00 0.00 88 990.0
20260902144058 54 156 0.0 0.0 0.00 0.00 0.00 89 989.9
20260902143557 53 156 0.0 0.0 0.00 0.00 0.00 89 989.9
20260902143055 53 156 0.0 2.0 0.00 0.00 0.00 89 989.8
20260902142555 53 156 0.0 2.0 0.00 0.00 0.00 89 989.7
20260902142054 53 156 0.0 0.0 0.00 0.00 0.00 89 989.7
20260902141554 53 156 0.0 1.0 0.00 0.00 0.00 89 989.7
20260902141052 52 156 0.0 1.0 0.00 0.00 0.00 89 989.7
20260902140552 52 154 0.0 0.0 0.00 0.00 0.00 89 989.6
20260902140059 52 154 0.0 0.0 0.00 0.00 0.00 88 989.6
20260902135550 52 154 0.0 1.0 0.00 0.00 0.00 88 989.6
20260902135050 52 154 0.0 1.0 0.00 0.00 0.00 88 989.6
20260902134551 52 154 0.0 0.0 0.00 0.00 0.00 88 989.6
20260902134048 52 154 0.0 0.0 0.00 0.00 0.00 88 989.5
20260902133548 52 154 0.0 0.0 0.00 0.00 0.00 88 989.5
20260902133056 53 154 0.0 0.0 0.00 0.00 0.00 88 989.5
20260902132546 53 154 0.0 0.0 0.00 0.00 0.00 89 989.5
20260902132046 53 154 0.0 0.0 0.00 0.00 0.00 88 989.4
20260902131556 53 154 0.0 0.0 0.00 0.00 0.00 88 989.4
20260902131046 53 154 0.0 0.0 0.00 0.00 0.00 89 989.4
20260902130546 53 154 0.0 1.0 0.00 0.00 0.00 88 989.3
20260902130045 53 154 0.0 1.0 0.00 0.00 0.00 88 989.4
20260902125545 53 154 0.0 2.0 0.00 0.00 0.00 88 989.5
20260902125045 53 154 0.0 2.0 0.00 0.00 0.00 88 989.3
20260902124544 53 154 1.0 2.0 0.00 0.00 0.00 88 989.3
20260902124043 53 154 0.0 0.0 0.00 0.00 0.00 88 989.3
20260902123543 53 154 0.0 0.0 0.00 0.00 0.00 89 989.3
20260902123042 53 154 0.0 0.0 0.00 0.00 0.00 89 989.3
20260902122542 53 154 0.0 0.0 0.00 0.00 0.00 89 989.3
20260902122041 53 154 0.0 0.0 0.00 0.00 0.00 89 989.3
20260902121542 53 154 0.0 0.0 0.00 0.00 0.00 89 989.3
20260902121041 53 154 0.0 0.0 0.00 0.00 0.00 88 989.4
20260902120541 54 154 0.0 0.0 0.00 0.00 0.00 88 989.2
20260902120040 54 154 0.0 0.0 0.00 0.00 0.00 88 989.3
20260902115538 54 154 0.0 0.0 0.00 0.00 0.00 87 989.4
20260902115038 54 154 0.0 0.0 0.00 0.00 0.00 87 989.3
20260902114542 54 154 0.0 1.0 0.00 0.00 0.00 87 989.3
20260902114036 54 154 0.0 1.0 0.00 0.00 0.00 87 989.3
20260902113536 54 154 0.0 0.0 0.00 0.00 0.00 86 989.2
20260902113050 55 154 0.0 0.0 0.00 0.00 0.00 86 989.3
20260902112535 55 154 0.0 0.0 0.00 0.00 0.00 86 989.2
20260902112036 55 154 0.0 1.0 0.00 0.00 0.00 86 989.2
20260902111534 55 154 0.0 1.0 0.00 0.00 0.00 86 989.2
20260902111034 55 154 0.0 2.0 0.00 0.00 0.00 85 989.3
20260902110535 55 154 1.0 2.0 0.00 0.00 0.00 85 989.3
20260902110034 55 154 0.0 0.0 0.00 0.00 0.00 86 989.3
20260902105537 55 154 0.0 0.0 0.00 0.00 0.00 86 989.3
20260902105033 55 154 0.0 0.0 0.00 0.00 0.00 85 989.3
20260902104549 55 154 0.0 0.0 0.00 0.00 0.00 85 989.2
20260902104033 55 154 0.0 0.0 0.00 0.00 0.00 85 989.2
20260902103032 55 154 0.0 0.0 0.00 0.00 0.00 84 989.1
20260902102531 55 154 0.0 0.0 0.00 0.00 0.00 84 989.0
20260902102029 56 154 0.0 0.0 0.00 0.00 0.00 84 989.0
20260902101536 56 154 0.0 0.0 0.00 0.00 0.00 84 989.0
20260902101029 56 154 0.0 0.0 0.00 0.00 0.00 84 989.1
20260902100531 56 154 0.0 0.0 0.00 0.00 0.00 85 989.0
20260902100028 56 154 0.0 0.0 0.00 0.00 0.00 84 989.1
20260902095528 56 154 0.0 0.0 0.00 0.00 0.00 84 989.1
20260902095027 56 154 0.0 0.0 0.00 0.00 0.00 84 989.1
20260902094526 56 154 0.0 0.0 0.00 0.00 0.00 84 989.1
20260902094026 56 154 0.0 0.0 0.00 0.00 0.00 84 989.2
20260902093524 56 154 0.0 0.0 0.00 0.00 0.00 83 989.2
20260902093027 56 154 0.0 0.0 0.00 0.00 0.00 82 989.1
20260902092524 56 154 0.0 0.0 0.00 0.00 0.00 82 989.1
20260902092024 57 154 0.0 0.0 0.00 0.00 0.00 83 989.2
20260902091530 57 154 0.0 0.0 0.00 0.00 0.00 84 989.2
20260902091023 57 154 0.0 0.0 0.00 0.00 0.00 85 989.2
20260902090524 57 154 0.0 0.0 0.00 0.00 0.00 85 989.3
20260902090022 57 154 0.0 0.0 0.00 0.00 0.00 85 989.3
20260902085521 57 154 0.0 0.0 0.00 0.00 0.00 85 989.3
20260902085020 57 154 0.0 0.0 0.00 0.00 0.00 84 989.3
20260902084520 57 154 0.0 0.0 0.00 0.00 0.00 84 989.3
20260902084019 57 154 0.0 0.0 0.00 0.00 0.00 84 989.4
20260902083518 58 154 0.0 0.0 0.00 0.00 0.00 83 989.3
20260902083017 58 154 0.0 0.0 0.00 0.00 0.00 83 989.4
20260902082517 58 154 0.0 0.0 0.00 0.00 0.00 82 989.3
20260902082019 58 154 0.0 0.0 0.00 0.00 0.00 82 989.3
20260902081521 58 154 0.0 0.0 0.00 0.00 0.00 80 989.2
20260902081016 59 154 0.0 0.0 0.00 0.00 0.00 80 989.2
20260902080514 59 154 0.0 0.0 0.00 0.00 0.00 79 989.2
20260902080014 59 154 0.0 0.0 0.00 0.00 0.00 78 989.3
20260902075514 59 154 0.0 2.0 0.00 0.00 0.00 78 989.2
20260902075013 59 154 0.0 2.0 0.00 0.00 0.00 78 989.2
20260902074512 59 154 0.0 2.0 0.00 0.00 0.00 79 989.2
20260902074012 59 154 1.0 2.0 0.00 0.00 0.00 79 989.1
20260902073511 59 154 1.0 2.0 0.00 0.00 0.00 79 989.1
20260902073011 59 154 1.0 2.0 0.00 0.00 0.00 81 989.1
20260902072510 59 154 0.0 0.0 0.00 0.00 0.00 82 989.1
20260902072009 59 154 0.0 2.0 0.00 0.00 0.00 83 989.1
20260902071509 59 154 0.0 2.0 0.00 0.00 0.00 83 989.1
20260902071009 59 154 0.0 2.0 0.00 0.00 0.00 83 989.2
20260902070507 59 154 0.0 2.0 0.00 0.00 0.00 83 989.0
20260902070011 59 154 0.0 1.0 0.00 0.00 0.00 83 989.0
20260902065508 59 154 0.0 1.0 0.00 0.00 0.00 82 989.0
20260902065006 59 154 0.0 1.0 0.00 0.00 0.00 80 989.0
20260902064508 60 154 0.0 0.0 0.00 0.00 0.00 79 989.0
20260902064006 60 154 0.0 0.0 0.00 0.00 0.00 79 989.0
20260902063506 60 154 0.0 1.0 0.00 0.00 0.00 77 989.1
20260902063006 60 154 0.0 1.0 0.00 0.00 0.00 77 989.1
20260902062506 60 155 0.0 0.0 0.00 0.00 0.00 77 989.0
20260902062006 60 194 0.0 2.0 0.00 0.00 0.00 77 989.1
20260902061509 60 194 0.0 2.0 0.00 0.00 0.00 77 989.1
20260902061010 61 194 0.0 3.0 0.00 0.00 0.00 79 989.0
20260902060504 60 194 2.0 3.0 0.00 0.00 0.00 78 989.0
20260902060005 60 194 1.0 3.0 0.00 0.00 0.00 76 989.0
20260902055508 61 194 1.0 3.0 0.00 0.00 0.00 76 988.8
20260902055005 61 194 1.0 2.0 0.00 0.00 0.00 78 988.8
20260902054504 61 194 0.0 1.0 0.00 0.00 0.00 79 988.7
20260902054004 61 194 0.0 1.0 0.00 0.00 0.00 78 988.8
20260902053504 61 194 0.0 2.0 0.00 0.00 0.00 76 988.7
20260902053006 62 194 0.0 4.0 0.00 0.00 0.00 75 988.7
20260902052510 62 194 1.0 4.0 0.00 0.00 0.00 75 988.7
20260902052004 62 194 2.0 3.0 0.00 0.00 0.00 74 988.7
20260902051504 62 194 1.0 3.0 0.00 0.00 0.00 74 988.8
20260902051006 62 194 0.0 2.0 0.00 0.00 0.00 75 988.9
20260902050503 62 194 0.0 3.0 0.00 0.00 0.00 75 988.8
20260902050008 62 194 1.0 3.0 0.00 0.00 0.00 76 988.7
20260902045502 62 194 2.0 4.0 0.00 0.00 0.00 76 988.6
20260902045004 63 194 2.0 4.0 0.00 0.00 0.00 77 988.7
20260902044510 63 193 2.0 3.0 0.00 0.00 0.00 77 988.6
20260902044002 63 192 2.0 3.0 0.00 0.00 0.00 76 988.5
20260902043502 63 191 1.0 3.0 0.00 0.00 0.00 77 988.4
20260902043003 64 191 1.0 2.0 0.00 0.00 0.00 78 988.4
20260902042502 64 191 0.0 0.0 0.00 0.00 0.00 78 988.4
20260902042002 64 191 0.0 0.0 0.00 0.00 0.00 79 988.3
20260902041503 64 191 0.0 0.0 0.00 0.00 0.00 79 988.3
20260902041002 64 191 0.0 0.0 0.00 0.00 0.00 79 988.3
20260902040503 65 191 0.0 0.0 0.00 0.00 0.00 79 988.3
20260902040001 65 191 0.0 0.0 0.00 0.00 0.00 78 988.3
20260902035503 65 191 0.0 0.0 0.00 0.00 0.00 77 988.1
20260902035001 65 191 0.0 0.0 0.00 0.00 0.00 76 988.2
20260902034501 66 191 0.0 0.0 0.00 0.00 0.00 76 988.1
20260902034000 66 191 0.0 0.0 0.00 0.00 0.00 76 988.0
20260902033500 66 191 0.0 0.0 0.00 0.00 0.00 76 988.0
20260902033101 66 191 0.0 1.0 0.00 0.00 0.00 76 987.9
20260902032601 66 191 0.0 1.0 0.00 0.00 0.00 75 987.8
20260902032100 66 191 0.0 2.0 0.00 0.00 0.00 76 987.9
20260902031600 67 191 1.0 2.0 0.00 0.00 0.00 75 987.9
20260902031100 67 191 0.0 2.0 0.00 0.00 0.00 75 987.8
20260902030600 67 191 0.0 3.0 0.00 0.00 0.00 74 987.7
20260902030100 67 191 0.0 3.0 0.00 0.00 0.00 74 987.6
20260902025559 68 194 0.0 3.0 0.00 0.00 0.00 73 987.6
20260902025102 68 194 1.0 3.0 0.00 0.00 0.00 73 987.6
20260902024600 68 194 1.0 3.0 0.00 0.00 0.00 72 987.6
20260902024059 69 194 0.0 3.0 0.00 0.00 0.00 71 987.5
20260902023559 69 194 0.0 4.0 0.00 0.00 0.00 70 987.5
20260902023110 69 194 1.0 4.0 0.00 0.00 0.00 69 987.5
20260902022603 70 193 1.0 5.0 0.00 0.00 0.00 68 987.5
20260902022101 70 190 1.0 5.0 0.00 0.00 0.00 67 987.4
20260902021602 71 190 2.0 4.0 0.00 0.00 0.00 67 987.3
20260902021058 71 192 2.0 4.0 0.00 0.00 0.00 66 987.3
20260902020558 72 192 2.0 5.0 0.00 0.00 0.00 65 987.3
20260902020058 72 193 2.0 5.0 0.00 0.00 0.00 63 987.3
20260902015600 73 192 2.0 5.0 0.00 0.00 0.00 62 987.3
20260902015057 73 192 2.0 5.0 0.00 0.00 0.00 61 987.3
20260902014557 74 192 1.0 5.0 0.00 0.00 0.00 60 987.2
20260902014056 74 192 2.0 6.0 0.00 0.00 0.00 59 987.2
20260902013556 75 190 2.0 6.0 0.00 0.00 0.00 58 987.3
20260902013157 75 187 4.0 6.0 0.00 0.00 0.00 57 987.3
20260902012555 76 197 2.0 4.0 0.00 0.00 0.00 55 987.3
20260902012055 76 198 1.0 5.0 0.00 0.00 0.00 55 987.3
20260902011625 76 198 2.0 5.0 0.00 0.00 0.00 54 987.2
20260902011055 76 198 2.0 5.0 0.00 0.00 0.00 54 987.2
20260902010554 76 199 3.0 5.0 0.00 0.00 0.00 55 987.3
20260902010054 76 199 2.0 6.0 0.00 0.00 0.00 56 987.2
20260902005554 76 206 3.0 6.0 0.00 0.00 0.00 57 987.3
20260902005054 76 226 3.0 7.0 0.00 0.00 0.00 57 987.3
20260902004554 76 181 2.0 7.0 0.00 0.00 0.00 55 987.3
20260902004057 76 193 3.0 6.0 0.00 0.00 0.00 55 987.4
20260902003553 76 168 4.0 6.0 0.00 0.00 0.00 54 987.4
20260902003058 77 220 2.0 7.0 0.00 0.00 0.00 54 987.3
20260902002555 77 217 3.0 7.0 0.00 0.00 0.00 55 987.4
20260902002052 77 215 4.0 8.0 0.00 0.00 0.00 54 987.3
20260902001556 77 178 3.0 8.0 0.00 0.00 0.00 53 987.4
20260902001052 78 138 3.0 7.0 0.00 0.00 0.00 52 987.5
20260902000552 78 169 3.0 8.0 0.00 0.00 0.00 51 987.5
20260902000055 79 209 4.0 9.0 0.00 0.00 0.00 50 987.4
20260901235552 79 169 4.0 8.0 0.00 0.00 0.00 49 987.4
20260901235052 79 186 3.0 8.0 0.00 0.00 0.00 51 987.4
20260901234558 79 149 4.0 8.0 0.00 0.00 0.00 50 987.5
20260901234050 79 204 3.0 7.0 0.00 0.00 0.00 51 987.6
20260901233551 79 152 4.0 7.0 0.00 0.00 0.00 51 987.5